Hettinger, ND

11:02 AM MDT on June 29, 2017 (GMT -0600)
Hettinger Municipal

Weather History for KHEI - January, 2014

Change the Weather History Date:

Wednesday, January 29, 2014

  Actual Average Record
Temperature  
Mean Temperature 26 °F -  
Max Temperature 41 °F 29 °F 48 °F (1998)
Min Temperature 10 °F 7 °F -20 °F (2008)
Degree Days  
Heating Degree Days 39 47  
Month to date heating degree days 1346 1405  
Since 1 July heating degree days 5068 4984  
Moisture  
Dew Point 15 °F    
Average Humidity 70    
Maximum Humidity 92    
Minimum Humidity 48    
Precipitation  
Precipitation 0.04 in 0.01 in 0.04 in (2014)
Month to date precipitation 0.14 0.29  
Year to date precipitation 0.14 0.29  
Sea Level Pressure  
Sea Level Pressure 29.61 in    
Wind  
Wind Speed 14 mph (NNW)    
Max Wind Speed 25 mph    
Max Gust Speed 31 mph    
Visibility 6 miles    
Events Fog , Snow    
T = Trace of Precipitation, MM = Missing Value Source: NWS Daily Summary

Daily Weather History Graph

Daily Weather History Graph

Search for Another Location

Airport or City:

Trip Planner

Search our weather history database for the weather conditions in past years. The results will help you decide how hot, cold, wet, or windy it might be!

Date:

Astronomy

Jan. 29, 2014 Rise Set
Actual Time 7:16 AM MST 4:51 PM MST
Civil Twilight 6:44 AM MST 5:23 PM MST
Nautical Twilight 6:08 AM MST 6:00 PM MST
Astronomical Twilight 5:33 AM MST 6:35 PM MST
Moon 5:55 AM MST 3:54 PM MST
Length of Visible Light 10h 39m
Length of Day
9h 35m
Waning Crescent, 2% of the Moon is Illuminated
Jan 29
Waning Crescent
Jan 30
New
Feb 6
First Quarter
Feb 14
Full
Feb 22
Last Quarter

Hourly Weather History & Observations

Time (MST) Temp. Windchill Dew Point Humidity Pressure Visibility Wind Dir Wind Speed Gust Speed Precip Events Conditions
12:53 AM 10.0 °F - 3.0 °F 73% 29.92 in 10.0 mi Calm Calm - N/A   Clear
1:53 AM 14.0 °F 3.9 °F 3.9 °F 64% 29.86 in 10.0 mi SW 6.9 mph - N/A   Clear
2:53 AM 17.1 °F 5.0 °F 5.0 °F 59% 29.82 in 10.0 mi WSW 10.4 mph - N/A   Clear
3:53 AM 16.0 °F 5.3 °F 5.0 °F 62% 29.78 in 10.0 mi West 8.1 mph - N/A   Clear
4:53 AM 18.0 °F 5.4 °F 7.0 °F 62% 29.79 in 10.0 mi West 11.5 mph - N/A   Clear
5:53 AM 17.1 °F 7.6 °F 7.0 °F 65% 29.78 in 10.0 mi West 6.9 mph - N/A   Clear
6:53 AM 23.0 °F 9.6 °F 10.9 °F 60% 29.75 in 10.0 mi West 16.1 mph - N/A   Clear
7:53 AM 24.1 °F 13.7 °F 12.9 °F 62% 29.75 in 10.0 mi WNW 10.4 mph - N/A   Clear
8:53 AM 28.0 °F 15.7 °F 16.0 °F 61% 29.72 in 10.0 mi West 17.3 mph - N/A   Clear
9:53 AM 33.1 °F 20.1 °F 18.0 °F 54% 29.70 in 10.0 mi West 25.3 mph - N/A   Clear
10:53 AM 37.9 °F 27.3 °F 21.0 °F 51% 29.68 in 10.0 mi West 21.9 mph 27.6 mph N/A   Clear
11:53 AM 39.9 °F 29.7 °F 21.0 °F 47% 29.64 in 10.0 mi WNW 23.0 mph 27.6 mph N/A   Clear
12:53 PM 39.9 °F 30.8 °F 21.9 °F 49% 29.60 in 10.0 mi WNW 18.4 mph - N/A   Clear
1:53 PM 39.9 °F 31.4 °F 21.9 °F 49% 29.57 in 10.0 mi West 16.1 mph - N/A   Clear
2:53 PM 39.9 °F 32.9 °F 23.0 °F 51% 29.55 in 10.0 mi WNW 11.5 mph - N/A   Clear
3:53 PM 37.0 °F - 24.1 °F 59% 29.56 in 10.0 mi Calm Calm - N/A   Clear
4:53 PM 33.1 °F 26.1 °F 21.9 °F 64% 29.55 in 10.0 mi North 8.1 mph - N/A   Mostly Cloudy
5:53 PM 28.9 °F 17.3 °F 21.0 °F 72% 29.54 in 10.0 mi NE 16.1 mph - N/A   Overcast
6:48 PM 26.6 °F 14.3 °F 19.4 °F 74% 29.44 in 4.0 mi NE 16.1 mph - 0.00 in Snow Light Snow
6:53 PM 26.1 °F 13.6 °F 19.9 °F 78% 29.54 in 2.0 mi NE 16.1 mph - 0.00 in Snow Light Snow
7:01 PM 26.1 °F 14.5 °F 21.0 °F 81% 29.45 in 1.5 mi NE 13.8 mph - 0.00 in Snow Light Snow
7:24 PM 24.1 °F 11.0 °F 21.0 °F 88% 29.44 in 1.0 mi ENE 16.1 mph - 0.00 in Snow Light Snow
7:53 PM 21.9 °F 6.9 °F 19.0 °F 89% 29.53 in 0.8 mi ENE 19.6 mph - 0.00 in Snow Light Snow
8:07 PM 21.0 °F 7.6 °F 18.0 °F 88% 29.43 in 0.8 mi ENE 15.0 mph - 0.00 in Snow Light Snow
8:53 PM 19.0 °F 3.6 °F 16.0 °F 88% 29.52 in 0.8 mi ENE 18.4 mph - 0.01 in Snow Light Snow
9:02 PM 19.0 °F 4.0 °F 15.1 °F 85% 29.42 in 1.0 mi NE 17.3 mph 26.5 mph 0.00 in Snow Light Snow
9:13 PM 19.0 °F 6.1 °F 15.1 °F 85% 29.43 in 0.8 mi NE 12.7 mph - 0.00 in Snow Light Snow
9:53 PM 18.0 °F 3.1 °F 14.0 °F 84% 29.55 in 0.5 mi NNE 16.1 mph - 0.01 in Fog , Snow Snow
10:53 PM 16.0 °F 1.7 °F 12.9 °F 88% 29.58 in 0.8 mi NNE 13.8 mph - 0.02 in Snow Light Snow
11:13 PM 16.0 °F 0.6 °F 12.0 °F 84% 29.50 in 1.0 mi NNE 16.1 mph - 0.00 in Snow Light Snow
11:53 PM 15.1 °F 1.8 °F 10.9 °F 84% 29.61 in 1.0 mi North 11.5 mph - 0.00 in Snow Light Snow